SCP
0 0 0 0 0 0 0 0 0 0 0 0 0 0 0 0 0 0 0 0 0 0 0 0 0 0 0 0 0 0 0 0 0 0 0 0 0 0 0 0 0 0 0
0 0 0 0 0 0 0 0 0 0 0 0 0 0 0 0 0 0 0 0 0 0 0 0 0 0 0 0 0 0 0 0 0 0 0 0 0 0 0 0 0 0 0
0 0 0 0 0 0 0 0 0 0 0 0 0 0 0 0 0 0 0 0 0 0 0 0 0 0 0 0 0 0 0 0 0 0 0 0 0 0 0 0 0 0 0
0 0 0 0 1 0 0 0 0 0 0 0 0 0 0 0 0 0 0 0 0 0 0 0 0 0 0 0 0 0 0 0 0 0 0 0 0 0 0 0 0 0 0
0 0 0 1 1 0 0 0 0 0 0 0 0 0 0 0 0 0 0 0 0 0 0 0 0 0 0 0 0 0 0 0 0 0 0 0 0 0 0 0 0 0 0
0 0 0 0 0 0 0 0 0 0 0 0 0 0 0 0 0 0 0 0 0 0 0 0 0 0 0 0 0 0 0 0 0 0 0 0 0 0 0 0 0 0 0
0 0 0 0 0 0 0 0 0 0 0 0 0 0 0 0 0 0 0 0 0 0 0 0 0 0 0 0 0 0 0 0 0 0 0 0 0 0 0 0 0 0 0
0 0 0 0 0 0 0 0 0 0 0 0 0 0 0 0 0 0 0 0 0 0 0 0 0 0 0 0 0 0 0 0 0 0 0 0 0 0 0 0 0 0 0
0 0 0 0 0 0 0 0 0 0 0 0 0 0 0 0 0 0 0 0 0 0 0 0 0 0 0 0 0 0 0 0 0 0 0 0 0 0 0 0 0 0 0
0 0 0 0 0 0 0 0 0 0 0 0 0 0 0 0 0 0 0 0 0 0 0 0 0 0 0 0 0 0 0 0 0 0 0 0 0 0 0 0 0 0 0
0 0 0 0 0 0 0 0 0 0 0 0 0 0 0 0 0 0 0 0 0 0 0 0 0 0 0 0 0 0 0 0 0 0 0 0 0 0 0 0 0 0 0
0 0 0 0 0 0 0 0 0 0 0 0 0 0 0 0 0 0 0 0 0 0 0 0 0 0 0 0 0 0 0 0 0 0 0 0 0 0 0 0 0 0 0
0 0 0 0 0 0 0 0 0 0 0 0 0 0 0 0 0 0 0 0 0 0 0 0 0 0 0 0 0 0 0 0 0 0 0 0 0 0 0 0 0 0 0
0 0 0 0 0 0 0 0 0 0 0 0 0 0 0 0 0 0 0 0 0 0 0 0 0 0 0 0 0 0 0 0 0 0 0 0 0 0 0 0 0 0 0
0 0 0 0 0 0 0 0 0 0 0 0 0 0 0 0 0 0 0 0 0 0 0 0 0 0 0 0 0 0 0 0 0 0 0 0 0 0 0 0 0 0 0
0 0 0 0 0 0 0 0 0 0 0 0 0 0 0 0 0 0 0 0 0 0 0 0 0 0 0 0 0 0 0 0 0 0 0 0 0 0 0 0 0 0 0
0 0 0 0 0 0 0 0 0 0 0 0 0 0 0 0 0 0 0 0 0 0 0 0 0 0 0 0 0 0 0 0 0 0 0 0 0 0 0 0 0 0 0
0 0 0 0 0 0 0 0 0 0 0 0 0 0 0 0 0 0 0 0 0 0 0 0 0 0 0 0 0 0 0 0 0 0 0 0 0 0 0 0 0 0 0
0 0 0 0 0 0 0 0 0 0 0 0 0 0 0 0 0 0 0 0 0 0 0 0 0 0 0 0 0 0 0 0 0 0 0 0 0 0 0 0 0 0 0
0 0 0 0 0 0 0 0 0 0 0 0 0 0 0 0 0 0 0 0 0 0 0 0 0 0 0 0 0 0 0 0 0 0 0 0 0 0 0 0 0 0 0
0 0 0 0 0 0 0 0 0 0 0 0 0 0 0 0 0 0 0 0 0 0 0 0 0 0 0 0 0 0 0 0 0 0 0 0 0 0 0 0 0 0 0
0 0 0 0 0 0 0 0 0 0 0 0 0 0 0 0 0 0 0 0 0 0 0 0 0 0 0 0 0 0 0 0 0 0 0 0 0 0 0 0 0 0 0
0 0 0 0 0 0 0 0 0 0 0 0 0 0 0 0 0 0 0 0 0 0 0 0 0 0 0 0 0 0 0 0 0 0 0 0 0 0 0 0 0 0 0
0 0 0 0 0 0 0 0 0 0 0 0 0 0 0 0 0 0 0 0 0 0 0 0 0 0 0 0 0 0 0 0 0 0 0 0 0 0 0 0 0 0 0
0 0 0 0 0 0 0 0 0 0 0 0 0 0 0 0 0 0 0 0 0 0 0 0 0 0 0 0 0 0 0 0 0 0 0 0 0 0 0 0 0 0 0
0 0 0 0 0 0 0 0 0 0 0 0 0 0 0 0 0 0 0 0 0 0 0 0 0 0 0 0 0 0 0 0 0 0 0 0 0 0 0 0 0 0 0
Wind_Speed
5 7 9 9 9 9 9 8 9 9 9 9 9 9 9 9 9 10 10 9 9 9 9 9 10 10 10 10 10 10 10 10 10 10 10 9 10 10 10 8 7 9 11
6 7 9 9 9 9 9 8 8 9 9 9 9 9 9 9 10 9 9 9 9 9 9 9 9 9 10 10 10 10 10 10 10 9 7 8 8 9 9 9 8 9 10
6 7 9 8 9 9 8 8 8 8 8 8 9 9 9 9 9 9 9 8 8 8 8 9 9 9 9 9 10 10 10 9 9 7 3 6 9 9 9 9 9 10 10
6 7 8 9 9 9 9 8 8 8 8 8 8 8 8 9 9 9 8 8 8 8 8 8 9 9 9 9 9 9 9 9 7 3 4 6 7 9 9 9 10 10 10
6 6 8 9 9 9 9 9 8 8 8 8 8 8 8 8 8 8 8 8 7 7 8 8 8 8 8 9 9 9 8 8 5 3 6 6 7 9 10 10 10 10 10
6 6 8 8 8 8 8 8 8 8 8 8 8 8 8 8 8 8 8 7 7 7 8 8 8 8 8 8 8 8 8 6 5 5 5 5 6 9 9 10 9 10 10
5 5 7 7 8 8 8 8 8 8 8 8 8 8 8 8 8 7 7 7 7 7 8 8 8 8 8 8 8 8 7 4 3 5 5 5 7 9 9 9 9 9 9
5 5 6 7 7 7 8 8 7 8 8 7 7 7 7 8 8 7 7 7 7 7 7 8 8 8 8 8 8 7 6 3 4 5 5 5 8 8 9 9 9 9 9
4 4 5 5 6 6 6 7 7 7 7 7 7 7 7 7 7 7 7 6 7 7 7 7 8 8 8 8 8 7 6 2 3 4 4 4 7 8 8 8 8 8 8
4 4 4 4 4 5 6 6 7 7 7 7 7 7 6 6 7 6 6 6 6 7 7 7 7 8 8 8 8 7 4 2 3 4 3 5 7 7 7 7 7 8 8
4 3 3 3 3 4 4 5 6 6 6 6 6 7 5 5 5 4 5 5 6 6 6 7 8 8 7 8 7 5 3 2 3 2 3 6 6 7 7 7 7 7 7
6 4 3 3 3 3 3 4 4 4 5 5 5 6 4 3 3 3 6 5 5 6 6 7 7 7 4 4 5 3 2 3 3 2 4 6 6 7 7 7 7 7 7
6 5 4 4 3 3 3 2 2 2 3 4 5 5 4 3 3 3 3 4 4 4 4 5 5 3 3 3 3 3 2 2 2 2 4 5 6 6 7 6 6 7 7
7 6 5 4 4 4 3 2 2 2 2 2 4 5 4 3 3 3 2 2 3 2 3 3 3 4 4 4 4 3 3 2 2 2 3 5 5 6 6 6 6 6 6
7 6 5 5 4 4 3 3 3 2 2 2 2 3 4 3 3 3 2 2 2 2 3 3 3 4 4 3 3 3 3 2 2 2 3 6 5 5 5 5 5 5 5
7 7 6 5 5 4 4 3 3 3 2 2 2 3 4 3 3 3 3 2 2 2 2 3 4 4 3 3 3 3 3 2 2 2 3 5 6 5 5 5 5 5 5
7 7 6 6 5 5 5 4 3 3 3 2 2 3 4 3 4 3 3 3 3 2 3 3 4 3 3 3 3 3 2 2 2 3 3 3 3 5 5 5 5 5 4
7 7 6 5 6 6 5 4 3 3 3 3 2 3 4 4 4 4 3 3 3 3 3 3 3 3 3 3 2 2 2 2 2 2 3 3 2 2 4 5 4 4 3
7 7 7 6 6 6 5 4 4 3 3 3 3 2 3 4 5 4 3 3 4 3 3 3 3 3 3 3 2 2 1 2 2 2 3 3 3 2 2 4 4 3 2
7 7 7 7 7 6 5 4 3 3 3 3 3 3 4 4 5 5 3 4 4 3 3 3 4 3 3 3 3 2 2 1 1 1 2 2 2 2 2 2 2 2 2
7 7 7 7 7 6 5 4 4 4 4 3 3 4 4 5 5 5 4 4 4 4 4 5 4 4 3 3 3 2 2 1 1 1 1 2 3 2 2 1 1 1 1
8 8 8 8 8 7 6 5 4 4 3 3 3 4 5 5 5 4 5 4 4 4 5 5 5 4 3 3 3 3 3 3 2 1 2 2 2 2 1 1 1 1 0
8 8 7 8 8 8 7 5 4 4 3 3 4 4 4 5 5 5 5 5 5 5 5 5 6 6 4 4 2 2 3 3 2 2 2 2 2 1 1 1 1 1 1
7 7 7 8 8 8 8 7 8 6 5 5 5 4 4 5 5 5 5 5 5 5 5 6 5 4 5 4 3 1 1 0 2 2 3 3 2 2 2 2 2 1 1
6 6 7 8 8 8 8 8 8 6 5 4 5 5 5 4 4 4 5 5 5 5 5 6 6 5 5 5 4 3 2 1 2 2 2 3 3 3 3 3 2 2 2
5 5 6 7 8 8 8 8 8 8 7 6 6 5 4 3 4 4 4 5 5 5 6 6 6 6 5 5 4 4 3 3 3 2 2 3 3 2 3 2 3 2 2
Wind_Direction
148 149 143 144 140 133 130 126 126 123 120 122 125 123 125 124 124 122 117 114 110 110 109 106 104 103 104 103 101 97 94 93 90 86 83 84 87 88 87 87 94 90 83
145 147 141 144 139 134 130 128 125 122 120 121 122 123 124 124 123 122 120 118 113 109 109 109 107 106 104 105 106 104 100 96 92 88 92 100 92 90 88 78 65 83 86
145 145 146 140 136 133 131 129 128 126 125 123 123 122 122 125 124 122 121 118 115 112 110 109 108 107 105 103 106 107 104 102 98 99 129 113 103 96 94 92 89 90 87
144 147 144 135 136 133 131 131 131 130 127 125 125 124 123 121 124 124 122 118 116 114 112 108 108 107 106 107 108 111 109 104 103 132 114 97 102 100 97 95 93 88 85
142 143 132 133 136 135 131 129 127 129 129 128 126 124 124 121 119 120 120 116 111 110 110 109 109 108 110 111 112 111 113 110 117 132 99 98 98 98 95 92 91 87 83
138 139 130 131 135 136 133 131 128 126 127 131 129 126 125 121 117 116 112 111 111 111 111 111 109 112 112 113 114 114 113 124 156 117 108 104 102 100 97 92 89 86 84
133 135 133 131 137 139 138 134 131 130 127 126 129 129 126 122 118 113 111 109 110 115 115 111 109 111 115 116 115 113 110 127 133 111 106 102 97 100 100 97 95 92 87
134 132 132 128 132 139 141 137 133 131 126 123 123 125 124 121 116 115 113 112 114 115 115 113 114 113 110 112 113 110 109 126 127 112 105 99 96 105 102 97 96 92 88
135 135 133 142 143 140 137 136 135 131 126 123 119 113 110 113 116 117 115 114 117 117 114 115 118 115 112 108 108 107 100 85 120 113 107 96 99 107 105 102 97 95 92
140 138 141 143 148 153 150 138 137 132 129 124 117 108 103 109 116 117 122 112 114 117 116 114 115 114 110 105 103 105 107 161 124 124 112 99 99 105 105 105 101 98 93
161 153 146 151 147 148 154 146 149 141 135 137 131 121 135 140 135 132 108 106 111 115 118 118 114 112 112 108 103 107 155 150 116 102 103 95 106 108 105 103 99 99 95
183 178 166 163 163 160 153 155 165 166 160 166 158 153 156 143 130 124 107 103 108 114 119 118 116 125 138 134 127 152 153 135 116 105 96 97 114 113 108 104 98 96 93
190 185 180 176 175 169 162 164 165 168 166 172 168 163 158 148 146 146 144 143 141 148 143 138 148 143 142 133 141 147 135 128 120 108 98 99 110 112 111 106 100 96 93
196 192 187 183 180 176 169 165 165 168 169 173 174 176 170 159 160 158 161 160 163 163 158 164 160 150 145 144 146 144 139 137 131 113 94 95 112 117 113 108 106 100 93
201 197 191 190 189 184 176 174 169 171 174 172 178 183 179 171 168 165 164 165 169 171 174 172 167 156 151 144 143 143 139 137 139 137 113 86 89 105 110 108 105 101 99
205 200 189 190 193 188 181 180 177 172 164 180 178 184 183 178 175 172 167 166 171 180 179 178 167 162 155 148 146 149 145 143 145 141 133 109 87 90 103 107 104 98 92
207 200 192 189 190 190 184 185 179 177 172 171 181 185 183 183 181 175 173 174 174 177 178 175 166 165 156 152 150 146 136 139 150 145 137 128 118 97 96 103 100 96 91
204 200 194 189 188 189 185 184 182 179 178 172 178 185 184 187 186 180 176 177 174 179 182 179 176 169 162 158 147 134 128 128 135 141 135 128 121 128 116 102 99 97 96
202 198 194 190 190 186 184 182 178 172 177 177 173 184 190 191 189 185 181 175 175 179 184 185 186 178 163 155 144 134 131 130 137 152 142 129 118 117 126 108 97 83 83
200 198 193 190 188 183 178 176 170 169 172 179 170 184 190 188 189 188 181 179 178 178 183 186 180 173 166 157 141 123 109 121 147 152 155 141 132 128 125 136 136 101 66
195 193 192 190 184 180 179 180 176 177 178 179 169 182 191 186 188 189 179 177 184 187 185 182 177 167 161 158 149 136 118 122 139 150 163 161 144 143 145 146 147 156 124
194 193 194 192 187 186 186 182 183 175 181 176 171 180 192 188 188 188 184 181 187 185 183 182 181 176 167 181 177 167 170 180 177 184 183 177 166 162 168 169 174 172 185
194 194 194 194 189 187 182 171 164 160 159 169 181 186 194 190 187 190 190 185 185 185 184 184 187 189 181 181 201 205 194 194 165 183 199 200 196 200 198 200 214 217 241
198 195 194 193 189 186 180 180 180 179 178 185 187 187 189 192 190 192 192 188 186 189 189 190 192 195 188 185 184 226 316 171 188 178 188 203 220 232 236 230 227 227 244
191 191 192 191 188 186 187 185 185 184 182 175 177 180 181 185 190 190 190 190 190 193 193 194 192 197 199 197 188 178 174 195 228 211 207 206 215 225 233 242 243 243 250
184 183 186 188 188 187 188 188 190 186 180 173 176 176 181 184 190 192 192 195 194 194 194 195 196 200 204 203 201 196 195 199 205 213 221 223 225 219 233 240 241 240 246